Theta_e
345 347 344 344 346 348 349 351 357 359 360 355 353 357 359 361 360 362 362 361 361 359 357 353 350 351 354 353 353 353 352 355 355 349 344 350 351 350 352 351 351 352 352 353 352 350 350 350 350 350 350 351 351 350 350 350 348 346 344 342 342 341 340 340 342 342 341 341 341 342 343 343 343 345 346 347 348 348 349 350 351 352 353 353 352 351 352 352 352 352 351 352 350 350 351 351 352
346 347 343 344 346 351 352 352 359 359 356 353 354 358 359 361 362 362 362 362 361 358 355 352 351 354 355 352 352 352 353 352 351 350 349 350 350 351 352 351 352 352 353 353 352 351 351 351 351 351 350 351 350 347 346 343 343 345 345 345 346 346 346 345 344 345 345 345 346 347 348 348 348 349 350 350 350 349 350 351 352 351 352 352 351 351 352 352 353 352 350 350 350 349 349 350 351
346 346 344 346 347 350 353 355 359 354 350 348 352 361 361 362 363 361 362 361 359 355 354 352 354 356 355 355 355 354 353 349 347 347 349 350 351 351 351 351 352 352 353 353 352 352 353 353 352 351 350 349 346 344 343 343 346 348 349 350 350 350 349 348 347 347 347 348 350 350 351 351 350 350 349 349 350 349 349 350 351 350 350 351 350 351 351 351 352 351 348 348 349 349 348 349 349
344 345 346 349 350 352 357 361 361 352 348 347 349 360 363 362 362 361 361 358 356 354 354 355 355 355 356 357 354 354 352 349 348 348 349 351 351 351 352 352 352 352 352 352 352 352 353 351 351 350 347 345 344 345 346 348 349 350 350 350 350 350 349 347 347 348 350 351 352 351 350 350 349 348 348 347 348 348 349 349 348 348 349 350 350 350 351 350 351 351 348 346 348 348 348 348 348
344 346 347 350 354 356 359 363 363 354 350 351 351 360 363 360 362 360 359 357 355 355 355 356 356 354 354 355 352 354 352 348 349 349 350 351 351 352 352 352 352 352 352 352 351 352 352 349 346 344 343 344 347 348 350 351 350 350 351 351 351 351 349 347 349 350 352 352 351 350 349 348 347 348 348 348 347 347 349 349 346 346 348 349 349 349 349 349 351 351 350 347 348 349 348 347 347
346 348 348 349 354 356 358 356 356 355 356 360 358 362 363 359 361 359 358 357 355 355 355 356 355 354 354 353 352 352 350 349 350 350 350 351 351 352 352 352 353 353 353 352 351 352 350 343 339 339 343 347 349 350 351 351 351 352 352 352 353 352 349 349 351 352 353 351 349 348 348 347 348 349 348 348 349 348 349 348 345 346 348 348 347 348 348 349 351 351 351 349 349 348 347 346 347
348 349 351 354 356 356 360 354 352 356 360 363 362 362 362 360 360 359 359 358 357 355 355 355 352 355 355 352 352 352 350 350 350 350 351 351 352 352 352 353 353 353 353 352 351 352 347 340 341 340 344 349 349 351 352 351 351 352 354 354 354 352 351 352 352 353 353 351 348 346 348 349 349 349 347 349 350 349 348 347 346 346 348 349 347 348 349 349 349 350 351 351 349 348 348 347 347
349 351 353 359 362 359 360 357 355 360 361 362 362 361 361 360 359 359 360 359 358 356 355 353 352 357 355 352 355 353 352 351 351 351 351 351 352 352 352 352 352 352 353 352 351 352 347 342 344 344 346 349 349 351 352 352 352 353 354 354 354 353 352 352 352 353 353 350 347 346 348 350 350 350 348 348 348 349 350 349 347 345 347 349 348 348 349 348 348 349 351 351 350 350 350 349 349
350 353 355 359 363 360 356 357 358 362 363 362 361 361 361 359 359 360 360 359 358 357 356 354 352 358 356 354 355 352 352 352 351 351 351 352 352 352 352 352 352 352 352 352 351 352 350 345 346 349 350 349 349 351 352 352 352 353 353 353 353 352 352 352 352 354 353 350 348 348 348 349 350 350 349 348 348 350 350 349 347 346 347 347 347 348 349 349 349 350 350 350 350 351 349 349 350
351 353 358 360 359 354 350 353 357 362 364 362 362 361 361 359 359 360 360 360 358 357 356 352 352 356 355 356 355 352 352 352 351 351 351 352 352 352 352 352 352 352 352 352 351 351 351 349 349 351 350 350 351 351 352 352 353 354 353 353 353 352 352 352 352 354 353 350 350 351 349 349 350 350 349 349 350 350 350 350 348 348 348 347 347 349 349 350 350 350 350 350 350 351 349 350 350
354 353 356 360 355 351 349 351 358 364 364 362 363 360 359 359 359 360 360 359 357 356 354 352 355 354 354 355 355 353 352 352 351 351 351 352 351 352 352 352 352 352 352 352 352 351 351 350 350 350 350 351 351 351 352 352 353 353 353 353 353 353 352 352 352 354 353 350 351 352 351 351 351 350 350 350 350 350 350 349 349 349 349 349 349 348 349 350 349 350 350 350 350 351 350 350 350
357 358 358 359 354 353 353 353 359 364 365 363 362 361 359 358 359 360 360 359 356 356 354 354 355 352 355 356 355 352 351 351 350 351 352 352 351 351 352 352 352 351 352 353 352 352 352 350 350 350 351 351 351 351 352 352 353 353 353 353 353 352 352 353 352 352 352 351 351 351 351 352 352 351 350 350 350 350 350 349 350 350 350 350 349 348 349 349 349 350 350 350 350 350 350 350 349
354 360 360 359 355 357 357 355 360 364 364 364 363 361 359 358 360 359 360 359 357 358 354 353 352 351 355 355 353 351 351 351 350 351 351 351 351 351 351 351 351 351 352 353 353 352 351 352 351 351 351 351 351 351 351 352 353 353 353 353 353 353 352 353 352 352 351 350 350 350 351 351 351 351 350 351 350 349 349 349 349 350 350 350 349 349 349 347 348 350 349 349 350 350 350 350 349
352 358 360 359 356 359 358 355 358 359 359 364 363 360 359 359 359 358 359 359 358 357 353 351 349 353 355 354 354 350 349 351 350 351 351 352 351 351 351 351 351 351 352 353 352 352 352 352 352 352 351 351 351 351 352 353 354 353 353 353 353 353 352 352 352 352 351 350 350 350 351 350 349 350 350 351 351 350 348 347 348 349 350 350 349 349 348 347 347 348 349 349 350 349 349 349 348
352 356 360 360 355 356 356 356 358 356 357 363 361 359 360 359 357 357 359 359 358 353 351 352 349 354 355 354 354 350 350 351 350 351 351 351 351 351 351 351 351 351 352 353 352 351 352 352 352 352 351 352 351 351 353 353 353 353 353 353 353 352 352 352 352 351 350 350 350 350 350 351 350 350 351 351 351 350 348 348 348 349 351 349 348 349 348 348 349 349 349 350 350 350 349 348 348
352 355 361 359 353 352 353 358 358 354 357 362 359 359 361 360 357 358 359 358 355 350 350 352 349 352 352 351 351 350 351 350 350 351 351 351 351 351 351 351 351 351 352 352 351 351 352 352 352 352 351 351 351 351 352 352 353 353 353 353 352 352 351 352 352 351 351 350 351 350 349 350 350 350 351 351 351 350 350 350 349 350 351 350 348 348 347 347 349 350 349 350 351 350 350 349 349
350 357 362 355 351 350 352 359 355 353 359 362 360 360 362 361 357 357 357 355 354 352 352 350 349 350 349 349 350 351 351 350 350 351 351 351 350 350 350 351 351 351 352 351 351 351 352 352 352 352 351 351 351 350 351 352 352 352 352 352 351 351 351 352 352 351 351 351 351 350 350 350 349 350 350 351 350 350 350 349 350 350 351 351 350 348 347 348 349 350 350 350 349 349 350 349 349
354 360 359 351 352 353 354 359 355 356 363 362 360 361 361 361 359 357 356 356 355 355 353 350 350 350 350 351 351 351 350 350 351 350 350 351 350 350 350 350 351 351 351 351 351 351 352 352 352 352 351 351 350 350 350 350 351 351 352 352 352 352 352 352 352 352 351 351 350 349 350 349 349 349 349 350 349 349 349 349 350 350 350 351 350 347 345 348 350 350 350 349 349 349 350 349 348
356 359 356 352 355 354 352 355 355 358 362 362 361 361 361 360 358 357 359 358 356 356 353 351 350 350 351 351 351 351 350 350 350 350 350 349 349 349 350 350 350 351 351 352 352 352 352 352 352 352 351 351 351 351 350 350 351 351 352 352 352 353 352 352 351 351 350 350 350 348 349 349 349 349 348 349 350 349 349 349 350 350 351 351 350 347 344 347 351 350 349 349 348 348 349 349 349
355 356 355 356 355 353 351 353 355 357 361 363 362 360 360 359 356 357 360 358 357 357 353 352 352 351 350 349 350 351 350 350 350 350 349 349 349 349 349 349 349 351 352 352 353 352 352 352 352 352 351 351 351 351 350 350 351 351 352 353 352 352 352 352 352 350 350 350 349 349 349 349 349 349 346 348 350 348 348 349 349 350 350 350 348 348 346 347 349 348 347 348 348 349 349 350 350
352 354 356 356 353 353 352 350 354 357 360 363 362 361 360 357 355 356 359 357 358 357 352 352 351 350 349 347 349 351 350 350 350 350 349 349 349 349 349 349 350 351 351 352 353 352 352 352 352 352 351 351 351 351 350 351 351 351 352 353 352 352 352 353 353 350 350 350 348 348 348 348 349 348 346 346 349 350 350 349 348 348 349 348 347 348 348 347 348 348 348 349 349 350 349 350 350
348 352 353 352 351 352 349 346 353 356 358 363 362 362 360 357 356 356 357 359 360 355 351 350 349 349 348 347 348 351 350 350 350 350 350 350 349 349 349 349 350 350 351 352 352 353 353 352 352 352 351 351 351 351 350 351 351 351 352 352 351 352 352 352 353 352 350 349 347 347 347 348 348 349 349 348 350 351 351 349 347 347 347 348 348 348 346 346 348 349 349 350 350 351 350 350 349
348 349 347 347 347 348 347 345 354 356 358 363 362 361 359 358 358 355 355 358 356 352 349 349 349 349 349 348 348 349 348 349 350 350 350 350 349 349 349 349 349 350 351 352 352 353 353 353 352 352 352 351 351 351 351 351 351 351 351 351 351 352 351 351 351 351 349 347 347 347 348 348 348 349 350 349 351 351 350 349 346 346 347 347 347 346 344 345 348 349 349 349 351 351 350 350 349
347 349 346 345 345 345 344 344 351 355 357 361 359 360 360 360 360 356 355 355 352 350 348 348 350 351 350 348 347 347 348 349 350 350 350 350 350 349 349 350 350 350 351 351 352 352 353 353 352 352 352 351 351 351 351 351 351 351 351 351 351 351 351 350 350 349 348 348 347 346 348 348 348 349 349 348 349 349 350 349 347 347 347 347 346 346 345 346 348 348 349 349 350 352 351 351 350
344 347 346 344 343 341 341 340 347 353 356 358 358 360 361 359 358 357 355 353 351 349 347 348 349 349 349 348 347 348 349 350 350 350 350 350 349 349 350 350 350 351 351 351 352 352 353 353 352 352 351 351 351 351 351 351 351 351 351 351 351 351 351 350 349 349 349 349 348 347 347 347 347 348 348 348 348 349 349 348 346 346 347 347 347 346 346 347 348 349 349 350 351 352 352 352 350
343 343 342 339 338 335 335 335 342 353 355 357 359 360 360 356 356 357 356 352 350 349 348 348 347 347 348 348 348 348 347 349 351 350 350 350 349 350 349 350 349 350 351 351 351 351 352 352 352 352 351 350 350 351 351 351 350 350 351 351 351 351 351 350 349 349 349 349 348 348 348 348 348 348 348 348 348 348 348 346 344 344 345 347 348 347 346 347 349 350 350 352 352 352 352 352 351
335 335 334 333 333 331 330 330 341 353 355 356 359 360 359 355 356 360 356 352 350 349 349 348 347 347 347 347 348 350 350 349 351 350 351 350 349 350 350 349 349 350 350 351 351 351 352 352 352 352 352 351 350 351 351 351 350 350 351 350 350 351 350 349 349 350 349 349 348 348 348 348 348 348 348 348 347 347 347 344 342 343 345 346 347 348 348 347 349 350 350 352 352 352 352 351 351
329 332 332 332 331 330 328 330 343 354 356 355 357 359 359 355 357 360 356 352 350 350 350 348 348 348 347 347 348 350 351 350 351 350 351 350 349 349 349 349 349 349 350 351 351 351 352 352 352 352 352 351 351 351 351 351 350 350 350 350 350 350 350 349 350 350 349 349 349 348 348 347 347 348 347 348 348 346 345 344 342 343 344 345 346 348 348 347 348 349 348 349 350 351 352 352 351
330 331 332 334 331 332 334 340 347 353 356 355 355 355 358 360 357 357 354 351 351 350 350 349 348 348 347 348 347 349 350 351 351 351 351 350 349 349 349 349 349 349 350 351 351 351 352 352 352 352 351 351 351 351 351 351 351 350 350 351 350 350 350 350 351 350 350 349 350 349 349 347 347 347 347 347 347 347 345 345 344 344 343 345 346 347 348 348 349 351 350 350 351 352 353 352 352
332 330 329 333 333 332 339 350 351 353 355 354 353 345 349 362 357 354 354 351 351 351 350 349 349 348 347 348 348 348 350 351 352 351 352 350 349 349 349 349 348 349 351 352 352 352 352 352 352 352 352 351 350 350 351 351 351 350 350 351 351 351 352 352 352 351 350 350 351 350 350 350 349 348 348 347 347 347 346 344 346 346 345 346 347 347 348 350 351 352 352 352 352 353 353 353 352
330 330 329 329 328 325 336 352 353 355 354 354 354 340 343 359 356 354 354 350 352 352 351 350 349 349 348 348 348 348 349 351 351 351 351 351 349 348 348 349 349 350 352 352 352 352 352 352 352 352 351 352 351 350 350 350 350 350 350 350 351 351 352 352 352 352 351 352 353 352 351 351 351 350 349 348 347 347 346 345 345 346 346 347 348 348 348 349 351 351 351 352 353 353 353 352 352
329 329 328 326 324 324 337 353 353 355 355 353 352 342 345 355 354 355 353 350 353 352 352 351 349 349 348 348 348 347 348 350 351 351 351 350 349 348 348 349 349 350 350 351 352 352 353 352 352 352 351 351 351 349 349 349 348 347 347 347 349 351 352 352 352 352 352 352 353 353 352 351 352 351 351 351 349 348 347 346 346 346 347 347 348 349 349 349 351 351 351 352 354 353 353 352 352
329 328 324 321 322 322 328 344 352 354 355 356 353 348 349 352 352 355 353 351 353 353 353 351 350 350 349 348 347 348 348 348 350 350 350 350 349 348 348 348 349 349 349 350 351 350 352 352 352 353 350 349 349 348 348 347 345 343 343 345 347 348 350 352 352 351 352 351 351 352 351 351 351 351 351 351 351 350 349 348 347 347 348 348 349 349 349 349 350 352 351 350 351 353 353 352 352
327 327 324 321 323 322 320 334 351 354 355 358 356 354 352 351 353 355 353 352 353 353 353 352 351 351 350 348 347 348 348 347 348 350 350 349 349 348 347 348 348 349 349 350 350 348 350 352 352 352 349 347 347 347 346 344 342 341 342 344 345 346 349 352 352 351 352 352 351 352 351 350 351 351 351 351 350 350 350 350 350 350 350 350 349 350 350 349 348 351 353 349 348 352 353 352 352
325 324 323 322 322 323 321 328 341 349 355 357 357 358 356 353 354 355 353 353 353 354 353 352 352 350 350 350 347 348 348 347 348 350 350 349 349 348 347 347 348 349 349 350 350 348 349 351 353 352 348 346 346 345 344 342 341 341 342 343 345 347 349 351 351 351 352 351 351 352 351 351 352 351 350 351 350 350 351 350 350 351 351 350 350 350 350 349 347 349 352 351 349 350 351 352 352
328 326 325 323 322 324 326 328 328 337 351 354 355 355 355 355 355 356 354 352 353 354 352 352 352 351 351 350 348 348 347 347 348 349 349 348 348 348 347 347 347 348 348 349 351 351 350 349 352 352 348 346 346 345 346 346 345 345 345 346 347 349 350 351 351 351 351 351 350 351 352 352 353 351 350 351 351 351 351 351 351 351 350 350 350 350 349 349 348 349 351 352 352 351 351 351 352
331 329 328 326 324 324 328 331 326 331 342 346 352 354 353 354 354 356 355 353 354 353 353 352 352 351 350 350 349 348 347 347 348 349 348 348 348 348 347 347 347 348 349 349 351 351 351 349 350 351 349 347 346 346 348 349 348 348 348 349 350 351 351 350 350 350 350 350 349 350 352 353 353 352 351 351 351 351 351 351 351 351 350 350 351 351 350 348 348 350 350 350 352 353 352 352 350
330 330 328 326 325 326 329 330 325 329 334 335 340 345 347 350 351 354 354 355 356 353 353 353 351 351 350 350 350 348 347 346 347 347 348 348 347 347 347 347 347 348 349 349 350 350 350 348 349 351 350 347 347 346 346 345 344 345 348 350 351 352 350 350 351 351 349 350 349 350 352 352 352 352 351 349 350 351 351 351 350 350 350 351 351 351 350 348 348 349 349 350 351 351 353 352 348
331 330 327 324 325 326 326 327 324 326 329 328 329 331 333 336 341 351 356 355 355 354 353 352 352 352 350 350 350 349 347 346 345 345 347 347 347 347 347 347 347 347 349 349 349 350 350 349 349 349 349 347 347 346 343 341 338 339 345 347 349 350 350 349 351 350 349 350 350 350 351 351 350 351 351 350 351 351 352 351 351 351 350 351 352 352 352 350 348 348 349 351 352 351 351 349 346
332 330 326 323 326 325 321 323 326 327 326 326 328 325 325 328 330 340 351 354 354 354 353 352 352 351 350 349 349 349 347 346 345 344 345 347 346 346 346 346 347 347 348 348 349 351 351 350 347 345 346 347 347 346 344 342 339 338 342 344 347 349 349 348 348 348 347 350 351 350 350 349 349 350 349 349 350 351 352 352 352 352 352 352 352 352 352 351 348 347 348 349 352 351 350 347 344
331 331 327 325 328 326 323 326 328 328 325 324 325 319 322 335 336 334 343 351 354 354 353 354 352 351 350 349 348 348 348 346 345 344 344 345 346 346 345 346 346 347 348 349 349 350 351 349 344 341 343 346 347 345 344 343 341 341 344 347 349 350 350 349 350 350 349 349 351 351 350 348 347 348 348 348 348 349 350 352 352 353 353 353 353 353 353 351 347 347 348 348 351 351 349 348 344
328 331 331 329 330 329 328 329 326 322 319 321 323 315 318 333 338 339 345 351 355 355 355 356 353 352 351 349 349 348 348 347 345 344 344 345 346 345 345 345 345 347 348 348 349 349 350 348 343 341 342 344 346 346 345 344 342 343 346 351 353 353 353 352 351 352 350 350 352 351 350 349 347 347 347 348 349 348 349 350 352 353 353 354 354 353 354 352 348 348 348 349 352 351 348 349 347
326 328 330 330 331 330 329 328 323 317 316 321 321 316 317 321 326 341 350 351 355 356 355 356 355 354 352 350 350 348 348 347 345 345 344 344 345 345 345 345 345 346 347 348 348 349 349 347 345 343 342 343 346 345 345 344 343 343 345 350 352 352 354 354 350 349 348 349 351 351 350 350 348 346 346 347 349 350 349 349 351 353 353 354 354 354 354 352 349 349 348 348 351 349 346 349 349
325 326 328 329 330 329 329 327 323 320 320 321 320 320 316 313 324 348 355 353 357 358 357 356 355 354 353 351 350 348 348 347 347 346 344 344 345 345 345 345 344 345 346 347 348 349 349 347 346 345 344 344 345 344 345 345 343 343 345 348 350 351 352 352 348 346 346 347 350 350 350 350 349 347 346 346 349 351 350 350 351 353 354 354 354 355 354 351 350 350 348 347 348 347 345 348 349
326 326 326 328 329 329 329 326 322 320 319 317 318 319 315 314 331 351 354 351 351 353 355 356 356 355 354 353 350 349 348 347 347 346 345 346 346 345 345 344 344 344 345 346 347 348 348 347 347 347 347 345 345 344 344 344 343 343 345 347 348 349 349 350 349 347 346 347 349 350 349 350 351 349 346 345 348 351 350 350 351 353 354 354 355 355 354 352 351 350 349 348 347 345 345 346 347
326 324 324 325 326 326 326 325 320 318 317 316 316 317 314 317 333 344 344 344 342 344 348 350 354 355 354 353 352 351 349 348 348 347 347 348 346 346 345 344 344 344 344 346 346 347 347 348 347 347 348 347 347 345 344 344 343 343 345 346 347 348 348 349 349 348 347 348 349 349 349 350 350 350 348 345 347 349 351 351 351 353 354 354 355 356 354 353 353 351 350 349 347 346 345 345 347
323 324 324 323 323 324 324 323 320 317 318 317 316 317 312 316 330 339 341 342 342 343 344 344 348 351 353 354 352 351 350 348 348 347 348 349 348 346 345 345 345 344 345 345 345 347 347 348 348 347 348 348 347 347 345 344 344 344 345 346 347 347 348 348 348 349 349 348 349 349 349 349 349 350 350 348 347 348 350 351 352 353 353 354 354 355 355 355 356 354 352 350 349 347 345 345 347
322 324 322 318 319 321 320 319 319 319 318 316 316 316 314 320 332 340 342 342 342 342 343 342 343 345 349 352 351 351 350 349 349 348 348 349 349 348 346 346 345 345 346 345 345 346 347 348 348 348 348 348 348 347 346 346 345 345 344 345 346 347 348 348 348 348 348 348 349 349 349 349 349 350 351 351 349 349 349 351 354 354 354 355 355 355 356 357 358 356 354 352 351 349 346 346 347
322 321 318 316 317 319 318 318 318 318 317 316 316 313 318 329 337 340 342 341 339 340 341 341 341 342 346 349 350 350 349 349 349 349 349 348 349 350 348 347 347 347 346 346 346 346 347 347 347 348 348 347 347 347 347 347 347 345 344 345 346 346 347 347 347 347 347 347 348 349 349 349 350 350 351 351 351 351 350 351 355 356 356 355 355 355 355 356 356 357 355 354 353 351 347 347 348
319 318 316 316 317 319 320 319 318 318 316 315 316 313 319 330 336 338 341 338 338 339 339 340 341 341 342 347 350 349 348 349 348 349 348 348 350 351 350 349 348 348 347 346 346 346 347 347 347 348 348 347 347 347 347 347 347 345 344 345 346 347 347 347 347 347 346 347 348 348 348 350 350 351 351 351 351 352 351 350 352 355 355 355 354 355 355 355 355 355 355 355 354 353 350 349 349
316 317 318 317 316 318 319 318 317 317 315 314 314 314 320 328 332 337 339 336 337 338 338 340 340 340 340 343 347 348 348 348 348 348 348 348 351 351 350 351 349 348 347 346 347 347 347 347 346 346 347 347 346 347 347 347 347 345 344 345 346 347 347 347 347 347 347 347 347 347 348 349 350 350 349 350 350 351 352 351 351 353 354 354 354 355 355 355 355 354 354 354 355 355 353 352 351
315 316 318 317 315 318 318 317 316 315 314 314 314 316 322 328 331 336 337 335 337 337 337 339 339 340 339 339 341 343 344 346 347 347 347 348 350 351 351 351 350 349 348 347 348 348 348 347 345 345 346 346 346 346 347 347 346 346 345 346 347 347 347 348 348 348 347 347 347 347 347 348 349 349 348 349 349 350 351 352 352 353 354 354 355 355 355 355 355 354 354 353 355 355 354 354 352
316 315 315 315 315 318 318 317 317 315 313 317 318 320 325 327 329 335 337 336 336 336 337 338 338 339 339 339 338 338 339 342 345 347 347 348 349 350 350 350 350 349 348 348 348 347 347 346 345 345 345 346 346 346 346 346 347 346 346 346 347 348 348 348 348 348 347 347 347 347 347 347 348 348 348 348 349 349 350 351 351 352 353 354 354 355 355 355 354 354 355 354 355 356 354 353 352
315 314 314 315 316 317 319 318 317 314 315 321 323 323 327 328 329 335 338 336 336 336 336 337 338 339 339 339 338 337 337 338 341 346 348 348 349 349 349 349 350 350 348 348 348 347 346 346 346 346 346 346 346 346 347 347 347 347 347 347 347 347 348 348 348 347 347 347 347 347 347 346 347 347 348 348 348 348 349 350 351 351 352 353 355 355 355 356 355 355 355 354 355 355 354 354 353
313 313 313 315 316 318 319 318 316 314 318 325 325 324 328 330 332 337 338 337 337 336 336 336 336 337 338 337 337 337 337 337 338 341 345 349 350 348 348 348 348 349 349 348 347 347 347 347 347 347 347 346 345 346 347 346 346 347 348 347 347 347 347 347 347 346 346 346 346 347 346 346 346 346 347 348 348 348 347 348 349 350 351 351 353 355 355 355 355 355 356 355 355 354 354 354 353
313 313 313 314 316 317 318 318 316 316 320 326 325 323 325 330 336 338 338 337 336 335 336 336 335 335 335 336 336 336 336 337 337 338 341 346 349 349 348 347 347 347 348 348 347 347 346 347 348 348 348 347 347 347 347 347 347 347 347 347 347 347 347 347 347 346 346 345 345 345 345 345 346 346 346 347 348 348 347 346 346 348 351 351 351 353 355 355 356 356 356 356 355 353 353 354 354
313 313 313 313 314 316 316 317 316 316 320 324 326 324 322 328 337 338 336 336 334 333 334 334 333 333 333 333 334 334 335 336 336 337 338 341 348 350 347 347 347 346 347 348 347 346 346 346 348 348 349 348 348 348 348 347 347 347 348 347 346 347 346 347 347 347 346 345 344 343 343 343 344 344 345 346 348 348 347 346 345 346 349 351 350 350 353 354 355 356 356 357 355 352 352 353 354
312 312 312 311 312 315 316 317 316 316 319 322 324 324 321 326 335 336 334 334 333 332 332 332 332 331 331 332 332 333 334 333 334 335 336 338 344 349 349 348 347 346 347 347 346 346 345 346 347 348 348 348 348 348 348 347 347 347 347 347 347 347 347 347 348 348 346 345 344 342 342 342 342 342 343 344 346 346 345 344 344 344 346 348 348 349 350 352 354 355 356 357 356 353 351 352 353
Wind_Speed
12 11 11 12 11 8 5 2 2 1 2 2 1 1 1 1 1 4 6 7 6 4 4 8 11 8 5 5 7 8 7 3 1 1 3 5 14 21 16 18 21 18 15 13 13 16 16 16 16 14 14 15 14 14 15 15 15 15 14 14 13 13 13 12 12 12 12 11 11 11 11 11 11 11 10 9 8 8 8 7 6 7 7 7 7 8 9 9 9 9 8 9 11 11 11 11 11
12 11 11 12 9 4 2 1 2 1 2 1 1 2 2 2 3 5 6 6 6 7 8 10 10 7 8 9 8 8 8 6 3 2 4 12 20 17 16 21 21 19 17 15 15 16 15 15 15 14 14 13 13 14 14 14 15 15 14 14 13 12 11 11 11 11 11 11 11 11 11 11 11 11 9 8 7 7 9 8 6 6 8 9 8 8 8 8 9 9 7 8 11 11 12 11 11
12 12 13 11 5 2 0 1 2 1 1 2 3 3 2 4 5 6 6 6 9 11 11 11 9 6 6 9 5 4 5 4 6 7 7 16 18 14 19 21 20 21 19 17 17 17 17 16 15 15 13 13 14 14 14 14 14 14 13 12 11 11 11 11 11 11 11 11 10 10 11 12 12 12 9 9 8 8 9 9 6 5 9 10 8 8 8 8 8 9 6 7 10 12 12 10 12
13 13 13 7 2 2 1 2 2 2 2 2 2 3 3 5 7 7 8 10 12 11 9 8 7 4 2 8 5 5 6 4 8 9 10 14 14 18 21 20 20 20 19 18 17 17 16 16 15 14 14 15 15 14 14 13 13 12 11 11 10 10 10 10 10 11 10 10 10 11 13 13 11 11 10 10 11 10 10 10 7 5 9 10 8 8 7 8 9 9 7 7 10 12 11 10 12
13 11 8 2 1 1 2 2 1 1 2 2 1 3 4 7 8 9 9 10 10 8 6 5 6 4 4 7 3 3 6 7 9 11 13 13 15 20 20 20 20 19 18 18 18 16 15 15 14 14 15 16 15 14 13 12 11 11 10 10 9 9 10 10 10 10 9 10 13 13 12 11 10 10 9 10 12 12 11 11 8 8 12 11 9 9 7 8 9 10 9 9 11 11 10 9 10
12 8 5 3 2 0 1 1 1 2 3 1 1 3 5 7 9 11 11 9 8 7 5 4 7 8 6 6 4 4 5 7 10 11 14 16 18 21 20 19 18 17 16 17 18 16 15 15 15 16 16 16 14 13 12 11 10 9 9 9 8 9 9 8 8 8 10 13 15 12 9 10 11 10 9 10 13 14 13 12 9 9 14 13 10 10 9 9 9 10 11 11 11 11 10 8 9
9 5 3 3 2 1 1 1 2 2 3 1 2 4 6 8 10 12 12 10 8 6 4 5 9 9 6 4 6 6 4 7 11 12 15 19 21 21 20 18 17 16 15 16 16 15 15 16 16 17 15 14 13 12 11 10 9 9 9 8 8 8 7 7 7 7 12 15 12 9 10 11 11 11 9 9 12 14 14 13 11 10 12 13 12 13 12 11 11 11 12 12 12 11 10 8 9
6 3 1 1 1 1 1 1 1 2 3 2 3 5 7 10 10 11 12 10 8 6 5 8 7 7 6 3 5 6 6 10 12 14 18 22 23 22 20 18 18 17 15 15 15 14 15 15 15 15 13 12 11 11 10 9 9 9 8 8 8 7 6 6 6 7 13 13 9 9 10 11 11 11 10 10 11 14 14 12 12 11 12 13 14 15 13 12 12 11 11 11 12 12 12 10 10
4 2 1 1 1 1 1 2 1 2 3 3 5 6 8 9 9 9 10 9 8 8 7 6 3 5 7 6 6 6 8 13 15 18 21 23 22 22 20 18 18 17 16 15 15 14 14 14 14 13 12 11 10 10 9 8 8 8 8 8 7 6 6 5 5 8 12 11 8 9 9 9 11 11 10 11 12 13 13 13 13 12 12 14 15 14 14 13 11 10 10 10 12 13 13 12 11
2 1 1 1 1 1 2 2 2 3 4 4 5 7 8 7 8 8 10 10 9 8 7 5 4 8 9 8 7 5 9 16 19 20 22 22 21 20 19 17 17 18 16 15 15 14 13 14 13 12 11 10 10 9 8 8 8 8 7 7 7 6 5 5 6 8 11 10 9 9 8 9 11 10 11 11 11 12 13 13 13 13 13 14 15 14 14 13 11 10 10 11 12 13 13 12 11
1 1 1 1 1 2 3 3 3 3 4 5 5 6 6 6 8 8 9 11 8 7 8 6 8 12 11 7 5 7 13 17 20 22 22 21 20 19 18 16 16 16 15 14 14 14 14 13 12 11 10 10 9 8 8 8 8 7 7 7 7 6 6 6 6 8 10 10 9 9 9 9 9 10 11 12 11 12 13 13 12 13 14 14 13 12 12 12 11 10 10 11 12 13 14 13 12
1 0 1 1 2 2 2 2 3 4 5 5 6 5 4 6 7 8 10 9 7 8 6 4 8 10 9 7 4 9 15 17 20 23 22 20 19 18 17 16 15 15 15 14 13 13 13 12 10 10 9 9 9 8 8 8 8 7 7 7 6 6 6 6 6 8 9 8 8 9 9 10 10 9 11 12 12 12 13 14 13 13 14 13 11 10 10 12 12 11 11 12 13 13 13 13 12
1 1 1 1 1 1 2 2 3 4 4 4 5 4 4 5 7 8 9 9 7 7 5 5 10 8 8 8 7 10 14 17 20 22 21 20 18 17 16 15 15 14 14 13 13 13 12 11 10 9 9 9 9 9 8 8 8 7 7 7 6 6 6 6 6 8 8 7 7 9 10 10 10 9 11 12 12 13 13 14 14 14 13 12 10 9 10 12 12 12 12 12 13 13 13 13 13
1 2 2 1 2 2 1 1 3 3 3 4 5 5 4 4 6 7 8 10 7 4 6 8 10 8 8 8 7 9 13 19 21 21 21 19 17 16 15 15 14 14 13 12 12 12 11 10 10 9 9 9 9 9 9 8 7 7 7 7 6 6 6 6 7 8 8 6 7 8 9 10 11 10 11 12 12 12 13 13 15 16 14 12 10 9 11 12 12 13 12 13 13 13 13 13 13
2 2 2 2 2 1 1 1 2 2 3 5 6 6 5 4 6 6 5 8 5 4 7 8 6 5 8 10 8 11 16 22 22 21 20 18 18 16 15 14 14 13 12 12 12 12 10 10 9 9 9 9 9 9 9 8 8 7 7 7 6 6 6 6 7 8 8 7 7 8 9 10 11 10 11 12 11 12 12 12 13 16 15 11 11 9 11 13 12 13 12 13 12 13 14 14 14
2 2 2 1 1 1 1 1 1 2 3 6 7 8 6 5 5 5 2 3 7 7 6 6 3 1 8 11 12 18 22 24 22 21 20 19 18 16 16 14 14 13 12 12 12 11 10 10 9 9 9 9 8 9 9 8 8 7 7 7 6 6 6 7 8 8 8 7 7 8 10 11 11 11 11 11 11 12 12 12 12 14 14 12 12 10 11 13 12 12 12 12 11 12 14 14 14
1 1 2 1 1 1 2 1 1 2 5 7 9 9 7 7 4 3 3 4 8 8 4 5 3 2 8 12 18 24 25 25 23 22 21 20 18 17 15 15 14 14 12 12 12 11 11 10 9 9 9 8 8 9 10 9 8 8 7 7 6 6 6 7 8 8 8 8 7 7 10 11 11 12 12 11 12 12 13 13 12 12 13 12 12 11 10 12 12 11 11 11 11 12 13 14 14
2 1 1 1 1 2 3 4 3 2 5 9 10 10 8 9 7 4 6 6 8 7 6 8 8 8 12 19 25 26 25 25 24 24 22 20 19 17 16 15 15 13 12 12 12 11 11 10 9 9 9 9 8 9 10 9 8 8 7 6 6 6 6 7 7 8 8 8 7 8 9 10 11 11 11 12 12 12 13 14 11 11 12 11 11 11 10 10 11 10 11 11 11 11 12 13 13
3 1 1 1 1 2 3 5 3 0 4 10 11 10 8 9 10 6 7 8 9 8 7 9 12 12 16 23 26 25 25 26 24 24 23 21 19 19 18 16 15 14 12 12 12 11 11 10 10 10 9 9 9 8 9 9 7 7 7 7 7 6 6 6 7 7 8 9 8 8 9 10 10 10 11 12 11 12 13 12 11 10 10 10 11 11 10 10 9 9 11 12 12 11 11 11 12
3 2 2 1 1 5 3 5 4 1 5 11 11 10 8 8 9 6 7 10 9 8 9 10 13 15 18 22 25 25 25 25 23 23 22 20 19 19 19 18 17 15 13 12 12 11 11 11 11 10 10 10 9 8 8 9 8 7 7 7 7 6 6 7 6 7 8 8 8 8 9 10 9 10 11 12 11 11 11 11 10 10 10 10 11 11 10 10 9 9 10 11 11 11 10 10 11
1 3 3 1 2 6 4 6 5 2 7 10 10 10 9 8 8 7 9 10 7 8 10 10 14 19 21 21 23 24 24 23 23 21 21 20 19 19 17 16 15 15 14 12 12 12 11 11 10 10 10 10 9 8 8 9 9 9 8 7 7 7 6 7 6 6 7 7 7 7 7 9 9 9 10 11 11 10 9 9 10 10 9 9 9 10 10 9 9 9 9 9 9 9 10 9 9
2 5 6 5 6 8 7 7 2 3 6 9 10 10 8 9 8 8 13 8 3 7 10 12 16 19 22 23 23 23 22 22 22 21 19 20 19 18 15 14 14 14 14 13 12 12 12 11 10 10 10 10 9 8 9 9 9 9 8 8 7 7 7 7 7 6 7 7 7 6 6 7 8 9 8 9 9 9 9 9 9 8 8 7 7 8 9 9 9 9 8 8 8 8 8 8 7
4 5 6 8 8 8 9 6 2 5 7 10 10 8 8 10 8 9 13 4 3 7 10 13 16 18 22 23 22 21 20 20 20 20 19 20 20 17 16 16 15 15 14 14 13 12 12 11 10 10 10 10 9 9 9 9 8 7 8 8 7 7 7 7 7 6 7 7 6 6 6 6 7 8 8 9 9 9 8 8 8 7 7 7 7 8 9 9 8 8 7 7 7 6 6 6 6
6 6 6 9 9 9 11 6 4 6 8 9 8 8 10 11 7 8 11 3 5 9 12 14 16 19 20 19 19 19 20 20 19 18 17 18 18 17 16 16 15 15 15 14 13 12 12 12 11 11 10 10 10 9 8 8 8 7 7 7 7 6 6 6 6 6 6 6 6 6 6 5 6 7 8 8 8 8 8 7 7 7 7 8 9 9 9 8 7 7 6 6 6 6 6 6 6
7 8 8 8 8 10 11 7 5 7 6 7 9 8 9 9 5 7 10 5 7 11 13 15 17 18 18 17 18 18 18 20 19 18 16 15 16 16 14 14 14 15 16 15 14 13 13 12 11 11 11 11 10 9 9 8 8 7 7 7 6 6 6 6 6 6 6 5 6 6 5 5 6 6 6 6 7 7 7 6 6 7 9 9 9 9 8 8 7 6 6 5 6 6 6 6 6
4 8 8 9 11 12 10 7 6 8 5 8 10 8 8 7 4 6 9 7 10 13 15 16 17 18 16 15 17 17 17 19 19 19 16 14 15 16 14 15 15 15 16 15 14 14 13 13 12 11 11 11 10 10 9 8 8 8 7 6 6 6 6 5 6 6 6 5 5 5 5 5 5 5 5 5 6 6 6 6 7 9 9 9 8 8 8 7 6 6 5 5 5 6 6 6 6
3 8 9 10 12 11 7 5 5 7 7 10 10 7 8 8 4 5 8 10 12 15 16 17 17 17 16 15 15 16 17 19 20 19 17 15 15 16 16 16 16 15 15 16 15 14 13 13 13 12 11 11 11 10 9 9 9 8 7 7 7 6 6 6 5 5 5 5 5 5 5 5 4 4 4 4 5 5 6 6 8 10 9 8 8 7 7 6 6 5 4 4 5 5 5 6 6
7 8 8 9 9 8 5 3 6 7 6 10 9 6 7 7 5 4 8 12 14 16 16 17 17 16 16 15 14 13 15 18 19 18 18 18 17 17 18 17 17 16 16 16 15 14 13 13 13 13 12 11 11 10 9 9 9 9 8 7 7 6 6 6 5 5 4 4 5 5 5 5 5 4 4 4 4 5 6 7 8 9 8 7 7 6 6 5 5 4 3 3 4 4 5 5 6
8 5 6 7 8 4 3 1 7 8 5 10 9 6 6 9 6 4 11 13 14 16 16 17 16 15 15 14 13 12 14 18 18 17 17 17 16 17 18 18 19 18 16 16 15 14 14 14 13 13 12 12 11 11 10 8 9 9 9 8 7 7 6 6 5 5 5 4 4 5 4 4 5 4 4 3 3 4 5 6 7 7 7 6 5 5 5 4 4 3 2 2 3 3 4 5 5
5 2 3 5 5 1 5 3 7 7 5 11 9 3 4 9 7 6 12 15 15 15 15 15 14 13 14 13 12 12 14 17 17 17 16 16 15 17 17 18 19 18 15 16 16 15 15 14 13 12 13 12 12 11 10 9 8 9 9 8 8 7 6 6 6 5 5 4 4 4 4 4 4 4 4 3 3 3 4 5 5 5 6 5 4 4 4 3 2 2 2 2 2 3 3 4 5
3 2 1 2 3 1 6 2 8 5 5 10 9 3 1 6 9 9 13 16 16 15 15 15 13 13 13 12 13 12 14 16 17 17 16 16 16 16 17 18 19 17 15 17 17 17 15 14 13 13 13 13 12 12 10 9 9 9 9 8 8 7 6 6 6 6 6 5 4 4 4 3 3 3 3 3 3 4 4 4 4 4 4 4 3 3 3 2 2 2 2 1 2 2 3 3 4
1 2 2 1 2 1 6 3 7 3 4 9 8 3 1 3 9 13 13 16 17 15 15 15 14 15 14 12 13 12 13 16 17 17 17 17 16 16 17 18 19 18 18 18 17 17 16 15 14 13 14 14 12 12 11 10 9 10 11 10 9 7 6 6 6 6 5 5 5 4 4 3 3 3 3 3 3 3 4 4 4 4 3 3 3 3 3 2 2 2 2 1 1 1 1 2 3
1 2 2 1 1 2 3 3 3 2 4 10 9 3 1 3 6 12 14 16 16 14 14 15 15 15 14 12 12 12 12 14 16 17 18 18 17 17 18 19 20 19 19 19 19 19 17 16 15 14 15 16 14 12 11 11 11 12 12 11 10 9 7 6 6 6 5 5 5 5 4 4 3 3 3 3 3 3 3 4 4 4 3 3 3 3 3 3 2 2 1 1 0 1 1 2 2
2 1 1 1 0 2 1 3 2 2 3 7 9 6 0 4 4 10 13 16 16 14 14 15 14 14 13 12 12 13 13 13 14 17 20 19 18 18 18 19 20 19 19 19 20 21 19 17 16 16 16 17 16 14 12 12 12 12 13 12 11 10 8 7 6 6 5 5 5 4 4 4 4 3 3 3 3 3 3 3 4 3 3 2 2 2 2 3 3 2 1 2 2 0 1 2 2
3 2 2 1 1 0 1 3 1 3 4 5 7 8 6 2 6 9 12 14 15 13 13 14 14 14 14 12 12 13 14 14 14 18 21 20 19 19 18 18 19 19 19 19 19 20 20 19 17 17 19 18 17 16 14 14 14 13 13 12 11 10 9 8 7 7 6 6 5 4 4 4 4 3 4 4 4 3 3 3 4 3 3 2 2 2 3 3 4 3 2 1 2 1 1 2 3
4 3 1 1 0 1 2 3 2 3 5 5 7 8 9 6 7 9 11 13 13 12 12 12 13 14 14 13 12 13 14 14 16 19 21 20 20 19 18 18 19 19 19 19 20 20 21 21 18 18 20 19 18 18 16 14 14 13 12 12 11 11 10 9 9 8 7 8 7 5 4 4 4 3 3 4 4 4 3 3 3 3 3 3 3 2 3 4 4 4 3 2 1 1 2 3 3
3 2 1 1 2 2 2 3 2 2 4 5 6 8 9 8 7 10 12 12 12 12 13 12 13 14 14 15 15 15 14 14 16 19 21 21 20 20 19 18 18 19 18 19 20 20 22 22 21 20 20 21 20 20 18 16 15 14 12 12 11 10 11 11 9 8 7 8 7 5 4 3 4 3 3 4 4 4 3 3 3 3 3 3 3 2 3 4 4 4 3 2 1 1 1 2 3
1 1 1 1 2 2 3 4 3 1 3 2 3 7 9 9 7 9 12 13 14 14 15 15 16 15 13 15 17 15 13 12 15 18 20 21 21 20 20 18 19 19 18 20 21 22 23 24 22 21 21 22 22 22 21 19 18 17 14 13 12 11 11 11 8 7 8 7 7 5 4 4 4 4 4 4 4 4 4 3 4 3 3 3 3 3 3 4 5 4 4 3 1 1 1 1 2
2 1 2 2 1 2 2 1 3 1 2 2 1 4 7 8 6 8 13 14 14 16 17 16 17 16 14 15 16 15 14 13 14 16 19 21 21 22 20 18 19 20 20 22 22 22 23 24 24 24 24 24 23 23 23 21 20 19 16 14 13 11 11 10 8 8 8 8 6 4 3 4 4 4 4 4 4 4 4 4 4 3 3 3 3 3 3 4 5 5 4 3 1 1 1 2 2
2 2 4 3 1 1 2 3 3 3 3 4 3 4 6 5 3 6 12 14 13 15 17 15 15 16 16 15 14 14 15 15 15 16 18 20 22 22 21 20 20 20 20 21 22 22 22 25 27 27 26 25 24 24 23 22 20 19 17 16 14 12 11 11 10 10 9 8 6 5 4 5 5 5 5 5 4 4 4 4 4 3 3 3 3 3 3 4 5 5 5 4 2 2 1 1 2
3 3 5 4 2 2 2 1 6 6 1 1 3 4 3 1 1 4 8 12 12 13 14 14 13 14 13 13 13 15 15 15 16 17 17 19 21 22 21 21 21 20 20 21 22 22 22 26 30 30 28 27 26 25 24 23 21 19 18 17 14 12 12 11 10 9 10 9 7 6 5 6 6 6 6 6 6 5 4 4 4 3 3 3 3 3 3 4 5 6 5 5 4 2 1 0 1
3 5 7 6 4 4 3 2 5 4 2 3 4 3 2 1 1 2 4 9 12 12 14 15 14 13 12 12 14 15 15 14 15 16 17 19 21 22 22 22 22 21 21 22 23 24 25 28 31 31 29 28 27 26 25 25 24 22 21 18 14 12 10 11 11 10 10 9 7 6 6 6 6 7 7 7 6 5 4 4 4 4 3 3 3 4 4 4 6 6 6 6 5 3 1 1 1
3 3 6 7 7 6 5 2 2 2 1 1 3 3 2 1 1 3 1 8 11 12 14 15 13 13 13 13 13 14 15 14 14 15 17 19 22 22 22 23 23 22 22 22 22 23 26 30 32 32 31 30 28 28 27 26 26 24 24 21 17 15 11 11 14 13 11 10 8 8 7 7 7 7 8 7 6 5 5 5 5 4 4 4 4 4 4 5 6 7 6 7 6 3 2 1 1
2 3 5 8 8 8 6 4 3 1 3 2 0 2 2 1 4 7 4 5 7 8 12 13 13 13 15 15 15 15 16 16 14 15 16 18 21 23 23 24 24 23 22 22 22 23 27 30 32 32 32 31 30 29 28 28 28 27 26 24 21 18 14 13 15 14 13 11 10 10 9 8 8 8 9 8 7 6 5 5 5 4 4 4 4 4 5 6 7 7 8 8 7 5 3 2 2
3 4 5 5 6 6 6 4 2 0 2 2 2 1 2 1 6 10 7 4 4 5 7 11 13 14 14 15 16 16 16 16 16 16 17 18 21 23 24 24 25 24 22 23 24 25 28 31 32 32 32 32 31 30 30 29 30 28 27 26 23 21 18 16 16 15 14 13 12 12 11 11 10 10 10 10 9 7 7 7 6 5 5 4 4 4 5 6 6 8 9 9 8 6 5 3 3
2 5 4 2 2 3 3 2 2 2 2 4 4 3 3 2 7 9 9 9 10 10 9 8 11 14 14 13 13 14 14 14 16 16 16 20 22 24 25 25 25 25 23 24 25 25 27 29 30 32 32 32 32 31 31 30 30 30 29 28 26 23 21 19 17 16 16 15 14 13 12 13 12 11 11 11 11 9 8 8 8 7 7 6 5 5 5 6 7 8 9 9 9 8 7 5 4
4 7 5 3 3 2 2 1 1 2 4 5 4 4 4 1 5 8 8 9 11 9 9 10 8 10 13 12 11 13 12 12 14 15 16 19 22 22 24 24 25 25 23 23 24 23 24 27 30 32 32 32 32 32 32 31 31 31 30 30 29 26 23 21 19 17 16 16 15 14 14 14 13 13 12 12 12 11 10 10 9 9 8 8 7 6 5 6 7 8 9 10 10 9 9 7 6
2 4 4 4 3 2 3 2 2 4 4 2 2 4 3 1 4 7 8 9 12 10 9 12 13 11 8 11 13 13 13 13 12 13 15 16 18 20 22 24 24 24 23 23 23 23 23 26 30 31 31 32 32 32 32 32 32 32 32 32 30 28 26 23 22 20 18 17 16 16 15 15 14 14 14 13 13 13 13 11 10 10 10 9 8 7 6 6 6 8 9 9 10 10 10 9 7
5 4 5 5 3 3 4 3 3 5 3 1 1 3 3 5 5 7 10 10 12 11 10 11 12 13 11 8 14 13 12 14 13 12 13 14 15 18 22 23 23 23 24 24 25 24 24 27 31 31 32 34 33 32 33 33 33 33 33 33 32 30 28 26 25 23 21 20 18 17 17 16 15 15 14 15 15 14 15 13 10 10 11 10 9 8 7 7 7 7 9 9 9 10 11 10 8
6 5 5 5 4 5 6 4 3 3 3 1 0 1 3 6 5 9 10 10 11 11 11 11 11 12 13 9 10 15 13 13 13 12 13 13 14 19 22 22 23 24 26 27 26 25 25 27 31 32 33 35 35 34 34 34 34 34 34 34 34 32 30 28 27 25 24 22 20 19 18 17 16 15 15 15 15 15 15 15 13 11 11 11 10 9 8 8 8 8 8 9 9 9 10 10 9
2 1 2 4 4 4 5 5 5 5 4 3 2 1 3 7 5 9 9 9 11 10 11 13 13 13 13 12 5 6 10 11 13 13 14 14 17 21 22 22 23 24 27 28 26 27 27 29 33 34 33 34 35 34 35 35 35 35 35 35 34 34 32 30 29 28 27 25 22 21 20 19 17 17 16 15 15 14 15 15 14 13 12 11 10 9 8 8 8 8 8 9 9 9 9 10 11
2 0 2 2 1 1 1 2 2 3 4 4 3 1 3 6 6 10 11 11 13 13 15 16 17 16 13 13 13 9 7 5 8 13 15 15 18 22 22 22 23 24 26 27 27 27 29 31 35 37 35 36 37 36 36 36 36 36 36 36 35 35 34 32 31 29 28 27 25 23 22 20 18 18 18 17 15 15 15 15 15 14 13 13 11 10 10 9 9 9 9 9 9 10 9 9 11
2 2 2 1 1 2 0 2 1 1 5 3 2 3 4 4 4 11 14 14 17 17 17 17 17 18 16 13 12 11 12 11 9 7 13 15 17 21 23 24 24 24 25 26 28 31 33 35 36 37 37 35 36 37 37 37 37 37 37 36 36 36 35 34 33 31 30 29 27 25 23 22 21 19 18 18 17 16 16 15 15 15 15 14 13 12 11 11 10 10 10 10 10 10 9 9 10
1 2 2 3 1 1 1 2 3 4 7 3 4 5 5 1 1 10 16 17 18 18 17 17 17 18 17 15 13 12 11 11 12 10 8 14 16 19 22 23 23 25 26 27 30 34 36 37 37 37 37 36 37 37 36 37 37 37 37 37 37 37 36 35 34 33 31 30 29 27 25 24 23 22 20 19 18 17 16 16 16 16 16 15 15 14 12 12 11 11 12 12 11 10 9 9 9
3 2 2 1 2 2 1 2 4 6 6 4 4 4 6 5 3 10 15 16 16 16 17 17 19 19 16 15 15 15 14 11 11 13 9 8 13 17 18 20 23 23 24 25 28 30 31 33 35 35 37 39 40 38 37 38 38 37 37 38 38 38 38 36 35 34 33 32 31 29 28 27 25 24 23 21 20 19 18 17 16 16 16 16 16 15 14 13 13 13 13 12 12 12 10 9 10
2 2 1 1 1 1 1 0 1 2 4 5 3 2 4 5 6 10 12 13 14 15 16 16 16 16 14 14 15 14 14 13 11 11 12 11 9 16 19 19 22 23 23 24 26 27 28 29 30 31 32 35 36 35 36 39 38 36 37 38 39 39 38 38 36 35 34 33 33 32 30 29 27 26 25 24 23 21 20 19 17 17 17 16 17 16 15 15 15 14 14 13 13 14 12 10 10
2 1 2 2 2 1 1 2 2 1 2 5 5 4 4 4 6 8 10 11 11 12 13 12 13 14 13 13 13 13 13 14 14 12 12 14 12 9 18 20 20 21 22 25 26 27 28 28 28 29 29 30 32 31 33 37 37 37 38 39 39 39 38 38 36 36 36 35 34 33 32 30 29 27 27 26 25 24 23 21 19 18 18 17 17 17 17 17 16 16 15 14 14 15 14 12 12
5 4 3 3 1 1 3 3 1 1 1 1 4 5 4 4 5 6 8 9 9 10 11 10 11 13 13 13 13 13 13 13 14 15 13 14 18 11 7 16 20 21 21 22 25 26 27 27 27 28 28 28 30 30 32 36 38 37 38 38 37 37 38 38 36 35 36 36 35 34 33 31 30 28 27 27 27 26 25 23 22 20 19 19 18 18 17 17 17 17 16 15 14 16 16 15 14
Wind_Direction
146 148 151 153 142 141 154 196 222 200 228 248 288 19 84 101 121 134 131 138 132 124 127 127 130 124 113 112 120 84 47 112 120 342 110 97 130 139 140 142 146 144 140 134 133 131 128 128 124 126 125 123 127 130 132 132 132 133 130 128 127 126 128 128 128 130 131 131 129 127 125 124 127 127 122 121 124 124 114 105 101 102 103 96 99 105 102 103 104 105 111 112 109 102 96 94 94
152 149 152 151 147 160 146 192 238 213 227 246 45 36 58 106 133 127 124 136 124 123 122 118 116 96 94 101 112 100 59 40 46 78 93 124 129 133 142 145 145 143 142 139 138 134 130 131 132 135 133 132 132 131 130 128 127 124 123 121 121 121 122 122 123 124 123 125 124 124 123 120 116 110 108 109 113 118 108 103 106 113 105 86 85 92 94 98 97 98 110 115 110 106 106 107 103
153 148 151 149 153 213 198 195 251 298 6 47 62 52 79 112 113 109 114 121 120 126 120 112 100 75 106 114 95 91 81 52 103 113 119 136 134 141 147 146 145 143 143 142 142 140 139 139 140 140 140 141 133 128 125 122 120 119 121 120 121 121 120 120 121 124 124 125 123 121 113 101 96 94 101 110 104 100 96 92 86 86 92 88 89 90 92 97 92 92 105 111 104 106 111 113 106
154 151 152 157 175 211 235 219 272 326 39 51 64 63 89 111 112 111 115 123 130 132 121 116 97 42 76 106 86 79 99 102 121 125 135 145 142 145 147 146 145 144 144 144 144 142 142 141 140 141 141 139 131 127 125 122 121 120 123 123 124 122 121 122 123 125 123 121 112 98 91 87 94 101 109 117 107 102 99 96 97 95 93 96 99 95 97 102 96 96 102 100 96 100 105 105 102
153 155 157 197 253 176 261 252 293 327 45 40 68 76 100 114 121 122 120 129 140 134 116 121 107 91 69 78 79 101 108 118 133 140 142 145 142 143 147 146 144 143 144 144 144 141 141 139 137 139 138 136 132 130 127 124 122 122 124 125 125 121 122 123 124 123 118 109 95 86 86 93 103 104 104 105 99 99 98 100 114 118 107 106 108 105 104 102 100 103 102 95 91 94 97 99 100
150 160 186 258 272 201 283 288 357 23 46 28 79 97 118 124 126 125 124 127 134 125 105 107 115 120 94 66 66 97 116 129 143 149 146 145 143 144 146 145 142 141 143 144 142 138 139 137 135 139 138 136 134 132 129 125 124 124 125 124 122 120 121 120 121 118 108 93 87 92 97 99 101 101 101 99 100 103 107 111 115 114 109 109 110 106 102 100 102 106 107 104 100 99 97 95 95
153 169 204 247 243 225 288 27 13 33 54 31 85 121 133 131 129 127 128 130 128 120 93 105 119 116 99 95 91 83 100 131 145 149 147 145 144 145 146 144 140 141 142 141 139 138 141 137 136 140 140 138 135 132 129 127 126 125 125 124 120 118 118 117 117 108 95 88 90 105 104 101 104 106 107 103 102 106 113 118 117 116 110 109 109 102 96 96 100 104 108 108 107 106 104 100 94
173 201 251 258 255 225 302 13 18 32 59 68 97 127 134 135 136 133 135 138 138 132 117 123 124 103 97 127 107 80 99 128 138 140 143 144 145 145 146 145 142 143 142 141 140 140 143 141 140 142 143 142 139 135 130 127 126 126 126 122 118 116 116 114 114 98 90 92 101 104 101 106 108 106 108 107 104 106 112 113 115 117 113 111 108 103 100 97 99 102 104 106 106 109 113 114 111
187 244 303 284 319 15 14 31 64 63 65 92 110 119 126 136 138 136 137 131 134 134 126 134 134 107 109 105 98 92 109 123 129 135 143 145 146 146 146 147 145 145 143 144 145 142 145 147 146 145 148 147 145 142 131 127 125 128 127 123 120 115 112 108 104 91 89 93 94 93 96 100 100 103 107 107 106 107 110 108 108 108 105 103 101 105 107 103 100 98 96 98 100 105 109 112 114
181 245 302 313 339 47 70 66 81 80 76 94 112 123 127 136 136 133 133 129 133 131 122 109 96 120 121 103 95 103 120 127 132 139 145 146 146 145 146 148 146 145 144 147 147 145 146 148 148 146 148 147 147 144 134 129 127 130 129 125 118 112 109 101 94 85 88 91 88 89 90 91 95 104 107 104 103 104 105 104 103 99 94 92 92 97 101 101 100 95 91 93 95 97 98 101 105
214 200 273 317 22 51 59 70 74 81 96 108 114 120 127 137 131 126 129 132 137 128 128 113 108 123 117 101 91 111 127 133 139 144 147 146 146 145 145 146 147 146 146 147 147 145 144 146 146 142 143 145 147 144 138 134 130 130 129 125 118 115 107 96 92 84 86 92 91 90 87 88 92 100 107 108 104 101 100 101 100 95 89 86 87 92 100 103 100 94 91 91 91 91 94 97 99
319 236 252 335 23 41 33 59 83 96 115 129 132 126 132 143 132 133 137 136 141 135 137 134 133 135 117 105 110 127 135 138 144 147 146 145 146 146 144 145 148 148 147 146 145 145 144 144 144 143 146 149 150 144 139 136 132 131 129 126 120 114 104 95 91 87 91 97 97 93 89 87 89 94 102 108 107 105 103 103 102 95 89 89 95 101 105 101 95 91 87 85 84 86 90 93 95
263 315 307 0 358 328 348 65 105 115 124 129 137 137 147 151 140 141 138 131 143 144 134 141 146 138 112 112 127 138 141 143 148 148 146 146 146 146 144 146 148 149 148 146 144 146 144 144 146 149 153 151 148 144 138 136 134 133 130 127 120 111 103 98 91 89 92 97 97 94 94 92 92 97 101 104 106 107 108 109 108 100 92 95 102 101 96 93 91 90 83 80 81 86 90 91 94
243 323 334 341 328 300 299 105 116 122 123 131 135 143 154 140 138 143 138 137 144 136 118 137 143 121 113 124 137 148 146 148 150 149 147 145 144 146 145 146 148 149 150 148 147 149 147 146 150 152 152 146 144 144 139 137 137 135 132 127 120 113 103 99 98 96 95 94 96 96 96 96 97 99 101 102 103 104 108 113 111 103 95 96 98 89 88 89 88 88 84 82 83 85 86 88 94
248 316 336 315 317 296 221 90 105 119 120 149 150 149 146 113 137 145 141 139 126 114 116 135 150 120 142 156 156 153 151 152 152 150 147 143 143 145 145 146 147 151 153 151 150 152 152 151 152 151 147 142 143 143 141 142 140 138 135 129 123 115 108 106 103 99 101 102 100 100 100 99 100 101 101 100 103 105 106 107 104 101 102 102 97 86 85 85 83 85 85 85 86 85 84 84 89
251 302 324 317 319 49 109 103 131 122 121 153 155 154 141 119 145 136 112 116 119 135 128 144 174 131 161 162 150 148 149 151 152 149 145 141 142 142 145 147 149 153 156 156 154 155 157 155 152 151 149 145 145 146 146 148 143 141 137 131 128 119 113 109 103 99 105 106 101 105 107 103 101 101 100 100 103 106 107 104 98 101 107 105 97 89 84 84 86 85 83 84 83 83 84 83 84
274 278 291 307 310 22 55 50 40 79 126 151 159 168 154 136 146 107 110 122 128 140 114 121 121 102 152 143 139 145 147 150 151 150 146 143 144 146 148 150 154 156 157 159 159 161 160 157 154 152 152 148 149 151 149 151 147 141 134 128 126 121 116 107 104 106 106 102 100 103 102 98 96 100 103 104 104 106 109 104 99 101 105 103 98 94 87 85 88 87 84 83 80 79 80 80 81
258 254 276 285 19 37 24 355 4 78 147 160 167 177 168 154 155 137 140 131 127 131 104 98 87 97 127 130 137 145 148 152 154 153 151 150 151 152 153 155 158 158 159 163 165 166 162 161 160 157 155 151 154 153 148 154 152 140 134 132 128 122 117 110 113 117 111 107 112 110 100 97 99 105 111 109 107 109 106 101 101 100 100 100 99 98 92 87 88 89 87 85 82 78 76 75 75
238 245 296 260 332 341 321 323 319 279 146 157 170 179 180 165 155 161 162 147 140 134 125 117 105 113 127 132 140 146 151 154 157 159 157 156 157 157 157 158 161 161 163 166 168 169 165 165 164 161 159 156 156 153 151 152 151 147 141 138 132 127 122 117 120 122 114 110 114 112 105 107 108 109 112 110 108 106 101 101 105 102 100 102 103 100 98 97 93 90 87 86 84 80 76 71 70
229 227 265 208 309 315 308 328 314 229 143 158 169 176 184 167 154 169 163 154 161 154 152 146 132 136 138 141 146 149 155 157 159 162 160 158 158 159 160 161 164 164 166 167 168 170 169 168 167 165 160 158 156 154 156 150 148 156 147 137 135 133 127 118 114 114 112 109 108 108 108 110 109 105 108 110 103 98 97 101 105 104 103 104 109 107 104 108 104 95 88 81 78 74 70 67 67
216 214 256 235 325 313 309 333 325 169 156 162 161 170 182 167 160 171 157 158 185 181 170 158 147 147 146 148 151 154 158 159 162 164 161 159 160 162 162 161 163 163 164 167 169 171 172 170 169 166 162 161 158 154 158 151 150 157 149 142 141 135 129 121 115 113 111 109 106 106 103 101 100 95 97 102 99 101 109 109 104 102 102 105 116 116 114 118 112 103 94 80 71 69 68 68 70
254 238 264 273 289 296 299 321 313 149 149 156 161 172 168 160 172 181 174 174 191 179 168 153 148 152 152 153 154 157 161 162 164 166 163 161 162 164 161 156 159 162 165 169 172 173 172 171 169 167 165 164 161 156 159 157 152 155 152 151 149 140 135 131 124 122 115 107 105 104 99 96 102 101 98 104 109 118 121 111 102 97 102 112 122 123 122 124 118 110 98 84 75 73 70 67 71
252 255 265 270 273 278 289 303 196 155 155 166 169 163 146 161 182 188 191 195 77 148 153 147 148 153 153 154 157 160 165 166 167 170 167 165 164 164 161 159 163 167 170 172 173 174 173 171 170 169 168 166 164 163 162 162 157 154 154 154 152 145 140 135 126 123 118 112 111 111 108 108 116 120 123 126 127 128 121 110 105 104 111 119 123 124 127 126 119 112 100 86 79 75 70 65 68
244 267 273 276 278 273 281 287 216 188 180 174 161 152 160 177 180 182 196 186 109 142 144 144 145 150 154 155 160 161 165 168 169 172 170 167 167 164 163 163 164 167 171 174 174 176 175 173 173 172 171 169 168 169 166 165 162 158 157 156 154 147 139 135 129 125 125 122 122 122 120 125 130 131 133 133 131 129 122 118 118 118 118 119 122 122 123 124 119 113 101 85 74 70 70 67 66
232 261 275 283 288 282 282 284 232 202 183 159 153 163 176 178 159 177 192 166 139 145 140 145 146 151 159 159 161 162 164 169 170 172 171 169 168 163 164 164 164 169 174 176 177 178 176 173 174 175 175 175 171 172 173 169 168 166 163 158 158 153 142 140 138 134 136 135 132 130 127 131 135 133 132 131 130 127 124 124 124 123 122 120 119 120 122 121 115 109 98 79 66 63 68 63 60
220 259 282 291 292 293 289 283 231 197 167 154 161 170 170 163 152 183 189 164 146 147 144 148 152 158 163 162 164 165 165 169 172 173 173 169 168 167 168 168 170 175 177 178 179 179 178 175 175 176 177 179 177 175 177 176 174 173 169 165 165 160 152 150 147 142 144 142 137 133 128 131 134 130 131 131 130 128 124 124 127 127 126 123 119 120 124 119 111 103 91 76 61 59 62 53 51
296 277 289 285 285 290 281 271 215 181 168 170 168 162 161 164 189 200 176 165 151 147 151 153 158 164 166 166 166 167 168 170 172 173 172 169 172 174 173 175 177 178 180 180 182 182 180 177 176 176 179 180 180 180 182 182 180 178 174 173 171 167 162 161 159 151 147 143 136 129 122 125 128 125 129 133 133 132 125 125 131 131 128 127 124 122 123 120 115 106 94 78 59 56 55 45 40
301 290 299 285 285 285 270 249 187 168 167 177 162 140 157 168 208 215 162 163 159 152 156 160 164 167 168 168 167 171 171 170 173 176 176 174 177 179 178 179 178 178 183 184 184 183 181 180 178 176 179 182 182 183 184 184 186 183 178 178 177 174 172 171 169 164 157 149 137 128 123 123 123 124 129 129 130 127 124 126 132 134 132 131 128 123 125 126 119 109 104 77 53 51 48 39 34
288 291 309 302 304 306 344 356 176 172 162 168 156 137 177 192 208 188 159 161 161 158 159 164 167 167 169 170 168 173 174 173 177 182 181 177 178 181 182 182 179 179 184 185 183 185 184 181 180 177 180 184 185 186 185 184 188 187 183 183 182 179 181 183 182 179 178 172 154 141 132 129 125 124 129 131 131 128 126 129 132 136 138 135 133 132 132 131 115 102 95 61 46 47 42 34 29
274 265 305 313 305 317 28 34 167 166 153 164 176 181 182 191 193 158 158 161 160 162 165 167 169 169 171 173 172 175 177 179 183 185 182 177 179 183 184 183 181 180 179 182 183 185 185 182 181 179 182 186 188 189 188 187 188 190 189 188 186 185 189 193 193 197 199 197 181 165 152 143 137 133 137 140 137 136 138 141 138 141 144 139 142 146 141 137 122 109 102 63 43 41 40 27 22
281 261 234 319 285 104 38 66 164 150 153 175 197 244 128 165 175 163 161 163 163 166 169 171 171 172 174 175 176 177 180 186 187 185 183 180 180 184 187 185 183 182 177 180 183 183 184 184 182 181 184 187 189 193 193 193 193 193 195 193 189 188 191 196 199 204 209 210 207 195 180 171 163 151 149 155 152 153 160 168 164 158 158 154 155 162 161 160 149 138 134 79 35 35 35 19 15
319 259 201 135 260 333 41 97 169 140 155 190 204 236 270 147 168 168 166 168 167 170 172 174 175 175 177 176 179 181 183 188 189 188 186 184 184 186 188 186 185 186 184 183 183 183 184 185 184 182 187 187 189 194 196 199 200 200 203 203 200 195 195 200 205 209 215 217 218 221 217 205 198 181 169 175 175 174 176 186 198 200 191 183 180 180 183 185 180 164 159 117 45 27 17 16 13
64 258 215 103 256 303 37 100 168 122 142 193 216 247 18 64 166 169 167 173 172 172 174 176 178 178 179 178 180 185 184 186 190 192 189 187 188 188 189 188 188 189 189 187 186 187 186 187 187 186 191 194 194 195 197 203 205 206 208 209 209 207 205 207 213 217 220 224 226 229 234 233 226 205 193 195 192 192 189 189 201 209 207 201 194 188 193 196 191 180 183 197 149 19 341 5 11
147 214 198 104 0 320 352 87 122 194 178 201 220 240 269 70 144 171 172 178 177 177 177 177 179 181 182 182 183 187 188 188 191 192 190 188 189 190 190 189 189 190 191 190 190 192 189 188 190 192 198 201 200 199 199 203 207 209 210 211 214 214 215 217 221 229 228 230 233 234 242 249 241 223 209 202 196 194 192 195 198 199 202 201 195 194 201 199 195 191 199 222 212 218 324 345 351
155 162 173 159 162 180 3 44 88 219 232 222 216 230 241 153 141 173 182 182 183 182 178 178 179 182 185 185 187 189 191 192 192 192 191 190 189 190 192 189 189 190 191 191 192 193 191 191 192 196 203 203 203 205 203 204 207 210 212 213 217 221 223 225 231 240 242 245 246 238 241 245 237 231 221 205 193 187 185 194 195 193 199 194 192 197 201 200 202 203 201 216 222 231 292 321 323
120 113 131 97 236 225 317 327 319 242 233 234 228 233 247 232 168 177 187 186 189 184 178 182 183 184 187 189 191 191 193 196 193 192 192 191 190 191 191 188 188 190 191 191 192 192 193 194 193 198 206 204 203 205 202 202 206 208 211 211 216 223 225 231 240 247 255 262 264 251 232 228 225 222 217 200 186 183 183 189 188 189 195 191 191 195 197 201 203 206 204 205 216 257 288 304 310
113 116 122 53 294 287 301 298 336 296 245 240 240 244 254 249 198 182 187 186 190 185 183 188 188 188 190 191 193 192 194 196 192 192 193 193 192 191 190 188 186 187 188 190 191 194 196 197 196 198 205 206 204 203 199 199 201 201 205 207 211 218 225 234 243 252 263 270 273 261 229 212 212 206 199 192 184 184 185 187 187 186 188 188 189 192 198 201 200 201 204 200 197 264 304 302 306
173 206 242 251 253 283 307 307 354 347 258 256 248 255 258 256 227 187 182 186 193 192 190 193 193 194 194 194 194 191 191 192 190 190 191 193 193 191 191 188 185 184 185 190 193 196 198 199 198 199 204 207 207 205 203 201 203 202 202 207 210 216 225 233 241 251 262 269 274 265 226 206 207 201 195 193 186 184 188 186 186 187 191 189 188 194 198 198 198 198 197 193 193 240 306 310 305
180 203 247 243 227 283 288 332 31 50 275 301 289 265 264 264 248 196 186 192 199 197 196 197 193 191 195 197 195 190 188 188 189 190 191 194 194 191 190 189 189 187 187 191 194 196 198 199 200 201 205 209 209 209 207 205 205 205 207 211 214 219 229 234 241 250 260 268 271 263 234 217 211 201 199 198 188 183 186 185 186 192 195 192 190 193 193 194 194 194 193 185 180 206 247 293 284
200 212 233 234 143 270 212 113 21 334 293 286 280 272 273 273 255 209 202 202 202 201 202 203 195 192 197 197 194 191 188 187 188 191 192 193 193 191 190 190 191 191 189 190 192 193 195 200 203 205 208 209 210 211 210 208 208 208 212 218 221 227 235 241 248 253 255 259 260 255 240 228 219 213 214 213 207 195 185 180 184 193 194 190 186 189 193 198 196 193 194 189 186 189 191 280 272
206 223 236 244 196 224 243 13 328 311 247 282 297 266 261 264 228 217 208 207 205 200 201 206 202 199 198 194 195 197 194 190 188 191 193 193 193 192 191 190 190 191 191 190 190 191 196 202 206 208 210 211 212 212 211 210 210 209 213 218 223 229 235 241 244 244 244 245 246 247 236 225 221 219 219 222 222 216 198 186 185 188 194 192 189 191 201 207 203 198 198 196 199 202 185 278 270
215 217 224 233 212 210 237 316 325 298 163 71 349 277 210 87 270 246 185 198 205 199 198 205 204 199 198 196 197 199 198 195 190 191 192 191 192 192 190 190 191 193 194 193 192 194 199 204 208 209 210 212 213 213 212 211 211 210 211 211 212 216 220 228 230 228 232 232 230 236 235 224 219 219 217 217 218 218 214 206 196 189 196 202 202 203 206 210 207 204 204 201 204 214 233 286 265
230 201 204 209 207 215 225 229 268 271 235 34 352 279 251 55 337 337 231 200 200 198 202 207 204 199 201 201 199 199 200 198 193 192 192 192 191 190 190 191 194 196 195 195 194 196 201 206 208 208 210 212 213 213 212 211 211 212 212 211 210 211 212 223 228 227 230 232 231 235 236 225 220 221 219 217 214 212 213 213 206 193 198 210 212 213 214 214 211 207 205 204 208 218 246 301 292
219 141 167 186 199 213 209 203 215 285 316 299 230 253 262 330 25 8 328 222 199 206 213 214 211 206 206 206 202 199 199 197 195 194 193 194 192 190 190 192 195 198 195 193 194 196 202 207 209 209 210 212 212 214 212 211 212 213 213 213 216 218 218 227 232 231 232 235 237 236 234 227 222 220 218 217 215 212 210 214 211 197 199 211 215 218 217 215 216 212 208 208 213 221 242 287 298
225 151 156 172 187 200 191 192 190 129 294 247 160 202 232 90 27 14 11 21 7 320 273 241 226 218 214 212 207 202 200 199 197 197 194 194 193 191 190 191 195 197 194 193 195 199 205 208 209 209 210 211 212 213 213 212 214 215 214 213 217 221 224 230 234 236 237 240 241 239 234 228 224 220 218 217 214 211 210 214 219 214 213 216 215 218 216 215 220 219 214 214 219 228 244 267 288
198 152 153 144 146 167 179 204 169 133 238 224 177 207 229 74 33 14 20 20 1 341 325 287 243 227 220 220 218 210 204 202 201 201 198 195 194 191 190 191 193 195 194 194 195 199 202 205 207 208 210 210 211 212 212 213 213 215 215 214 216 220 224 228 232 235 239 241 242 241 235 228 225 223 220 217 214 212 210 212 220 224 226 226 224 223 218 218 223 223 221 221 225 234 244 258 278
120 148 157 119 110 127 121 105 157 161 222 231 205 212 230 104 45 23 17 4 347 336 336 334 305 252 226 216 222 219 211 207 205 204 202 198 195 192 191 192 191 191 193 192 193 194 196 199 204 207 209 210 210 211 211 212 213 214 216 216 217 219 221 224 225 228 233 237 240 241 237 230 227 225 223 221 217 215 214 213 215 220 224 227 229 230 224 222 225 226 225 226 231 237 239 249 268
150 167 168 147 132 134 124 110 182 200 210 233 198 192 203 90 47 18 6 358 352 348 342 342 339 318 263 216 211 217 214 210 208 207 204 198 193 191 191 191 189 187 189 190 191 192 192 197 202 204 207 209 210 211 211 211 212 213 215 217 218 219 221 223 222 224 230 235 239 240 236 231 229 227 224 223 220 219 218 215 212 215 218 221 226 230 226 223 225 227 228 229 232 234 232 238 256
200 190 175 176 162 157 170 160 180 210 208 75 111 179 132 88 61 13 5 4 357 354 350 345 343 339 321 251 213 209 210 205 204 208 206 200 193 191 192 190 185 183 187 190 192 192 191 196 201 201 205 208 210 210 211 211 212 214 215 216 218 220 222 224 225 227 231 236 239 239 236 233 230 227 224 222 221 220 220 217 212 213 216 217 220 225 228 226 225 228 231 230 229 229 229 234 247
183 183 182 190 178 173 182 164 153 210 210 126 69 216 142 123 72 15 12 9 360 357 358 357 353 349 342 316 226 207 209 202 198 206 209 205 198 196 195 189 183 184 189 191 191 191 191 194 199 201 204 208 209 210 211 212 213 215 216 216 218 220 222 225 227 229 232 235 238 239 238 236 233 231 229 227 223 221 222 221 217 216 218 217 217 222 229 231 228 230 234 233 229 229 232 237 243
153 186 216 207 199 190 186 177 172 179 165 127 144 203 153 143 93 29 23 17 11 9 8 10 10 6 1 358 343 222 223 211 200 202 207 209 203 198 198 192 186 187 190 191 191 190 191 195 199 201 203 205 207 209 211 213 214 215 216 217 218 220 222 225 227 230 232 234 236 237 238 239 238 237 238 237 233 229 227 226 223 221 220 220 221 224 230 234 232 233 239 240 237 236 236 239 241
119 79 230 211 221 270 158 172 169 158 146 124 148 143 74 129 106 41 27 22 21 19 16 18 15 11 12 15 14 359 331 292 228 208 202 207 203 197 199 197 192 190 189 190 189 189 191 197 202 204 204 206 207 208 210 213 214 214 215 216 218 220 223 225 228 230 232 233 234 235 237 240 241 243 244 243 241 237 233 231 228 223 220 220 223 228 234 237 235 235 242 246 244 243 243 242 242
161 170 188 93 16 328 90 136 61 153 173 147 120 101 72 143 121 27 17 19 22 20 19 19 15 14 17 17 11 2 355 346 321 252 209 204 201 197 200 200 196 193 191 190 190 191 194 197 201 204 205 206 206 207 210 212 213 214 215 216 217 219 222 224 227 230 230 230 232 233 235 239 242 245 246 245 245 243 238 236 233 227 222 219 222 229 235 238 238 238 242 246 246 247 248 245 243
209 171 129 87 81 289 318 163 153 186 183 118 65 88 66 122 159 14 11 15 17 15 16 17 17 19 19 14 7 0 354 349 345 328 251 214 203 200 201 201 199 197 194 194 193 194 196 198 200 201 202 204 206 207 208 210 212 213 214 215 217 219 222 224 227 229 230 229 230 231 232 235 239 242 244 246 248 247 244 240 236 232 227 223 224 228 233 236 238 240 242 245 246 248 250 247 244
39 84 88 84 196 181 205 200 177 188 177 116 89 100 58 38 20 10 10 13 11 10 14 18 19 18 15 11 7 4 1 357 355 349 322 258 215 201 197 199 201 198 196 196 196 195 196 197 198 200 202 206 208 207 207 210 211 211 213 216 218 220 221 223 226 228 230 230 230 230 231 234 237 240 242 245 247 250 249 246 241 236 232 229 228 228 230 234 235 238 242 242 243 247 250 248 244
66 101 78 357 321 204 184 206 214 209 170 136 134 128 63 41 24 13 12 13 11 13 19 22 20 16 13 11 7 6 8 5 0 355 348 332 263 212 198 198 202 199 196 197 198 198 199 198 197 198 200 203 205 204 206 209 209 209 213 216 218 220 222 223 225 227 228 229 230 231 232 234 236 238 240 242 245 249 251 250 247 240 234 231 231 229 229 233 234 236 239 238 239 244 249 250 247
32 61 46 35 356 279 144 70 14 305 178 152 149 128 74 45 30 16 12 17 18 19 23 25 20 17 16 15 12 10 11 11 8 4 1 356 336 243 207 200 200 199 197 197 198 198 201 201 199 198 196 197 199 200 204 208 209 209 212 215 217 220 221 223 224 226 228 230 231 232 233 234 236 238 239 240 243 246 249 251 250 244 237 234 235 233 231 234 236 237 240 241 241 242 244 248 250
31 44 28 4 355 210 188 167 109 21 356 141 143 129 87 41 31 17 11 21 25 21 22 26 22 19 17 14 15 18 17 16 16 13 14 13 6 348 232 204 198 196 196 198 199 199 199 201 201 200 198 197 199 199 202 208 209 210 213 215 216 218 220 221 222 224 227 229 231 233 233 234 235 237 238 239 241 244 246 248 249 246 242 239 239 238 235 236 238 239 240 241 241 242 241 243 247